Date,TemperatureHighF,TemperatureAvgF,TemperatureLowF,DewpointHighF,DewpointAvgF,DewpointLowF,HumidityHigh,HumidityAvg,HumidityLow,PressureMaxIn,PressureMinIn,WindSpeedMaxMPH,WindSpeedAvgMPH,GustSpeedMaxMPH,PrecipitationSumIn
2014-1-1,31,25,19,20,15,9,72,65,56,30.45,30.27,2,0,4,0.00
2014-1-2,29,23,13,21,18,10,91,83,68,30.26,29.69,6,1,8,0.00
2014-1-3,17,11,2,12,4,-6,90,74,55,30.51,29.66,3,0,7,0.00
2014-1-4,26,14,1,15,3,-6,75,62,41,30.58,30.35,2,0,6,0.00
2014-1-5,41,28,19,40,26,14,98,90,73,30.35,29.79,2,0,6,0.00
2014-1-6,54,38,11,54,33,-5,98,81,45,29.80,29.43,12,2,13,0.37
2014-1-7,10,4,-1,-5,-10,-16,58,51,44,30.43,29.82,7,2,11,0.00
2014-1-8,18,11,5,4,-2,-7,68,56,46,30.62,30.44,3,0,6,0.00
2014-1-9,32,22,16,14,10,4,77,61,40,30.71,30.55,2,0,3,0.00
2014-1-10,36,29,23,35,25,13,97,85,64,30.62,30.24,0,0,1,0.00
2014-1-11,60,50,34,59,50,34,99,98,97,30.23,29.35,4,0,8,0.61
2014-1-12,49,39,32,47,31,26,92,73,61,30.09,29.44,6,1,9,0.00
2014-1-13,55,40,28,37,31,26,92,72,44,30.16,29.91,2,0,5,0.00
2014-1-14,45,44,42,44,41,35,97,90,76,29.91,29.69,2,0,5,0.24
2014-1-15,50,40,32,45,38,31,98,94,79,30.02,29.90,1,0,3,0.00
2014-1-16,38,35,29,36,32,26,93,87,81,29.97,29.86,1,0,3,0.00
2014-1-17,43,32,23,30,25,19,89,76,54,30.01,29.89,1,0,4,0.00
2014-1-18,36,31,22,32,25,13,95,80,68,29.90,29.71,4,1,7,0.03
2014-1-19,33,26,18,24,17,12,76,68,57,29.87,29.69,3,0,8,0.00
2014-1-20,43,35,29,29,25,20,77,65,51,29.90,29.61,4,1,6,0.00
2014-1-21,28,17,8,19,10,3,88,77,54,30.00,29.84,4,0,6,0.00
2014-1-22,16,8,0,2,-5,-8,76,59,41,30.04,29.81,4,0,4,0.00
2014-1-23,19,9,0,4,-1,-9,78,64,52,30.33,30.03,4,0,7,0.00
2014-1-24,18,10,3,2,-2,-5,75,60,42,30.42,30.12,5,0,7,0.00
2014-1-25,23,17,10,19,11,2,90,77,57,30.10,29.48,3,0,6,0.00
2014-1-26,22,18,12,15,7,-2,86,63,46,29.93,29.51,3,1,7,0.00
2014-1-27,38,26,17,27,14,0,83,62,40,30.10,29.64,6,1,10,0.00
2014-1-28,17,13,9,1,-3,-7,68,51,36,30.39,30.11,2,0,6,0.00
2014-1-29,21,12,7,6,0,-5,85,59,36,30.33,30.15,3,0,5,0.00
2014-1-30,30,16,6,7,2,-4,67,55,35,30.50,30.23,2,0,3,0.00
2014-1-31,36,27,19,18,14,7,71,59,43,30.26,30.13,3,0,6,0.00
2014-2-1,46,35,28,31,22,17,93,62,41,30.35,30.05,1,0,3,0.15
2014-2-2,50,40,33,36,33,30,97,79,53,30.11,29.94,2,0,5,0.06
2014-2-3,37,30,23,31,28,20,95,93,79,30.34,30.09,2,0,3,0.01
2014-2-4,35,25,17,27,21,14,90,84,68,30.50,30.26,0,0,0,0.19
2014-2-5,32,30,27,31,29,25,96,94,88,30.26,29.68,0,0,0,0.01
2014-2-6,31,22,16,26,18,13,92,85,72,30.33,30.02,0,0,0,0.00
2014-2-7,34,23,16,22,17,13,89,79,63,30.37,30.26,0,0,0,0.01
2014-2-8,26,20,13,15,11,7,78,68,53,30.38,30.19,0,0,0,0.00
2014-2-9,29,21,14,20,13,7,92,72,49,30.23,30.05,1,0,3,0.00
2014-2-10,28,20,13,18,10,5,92,68,48,30.32,30.05,0,0,0,0.00
2014-2-11,25,16,10,7,4,2,77,62,42,30.52,30.32,2,0,4,0.00
2014-2-12,25,16,5,13,6,0,80,66,44,30.62,30.33,1,0,4,0.00
2014-2-13,32,28,18,31,27,14,96,95,82,30.32,29.07,1,0,3,0.00
2014-2-14,38,32,27,31,26,22,96,82,62,29.80,29.09,0,0,0,0.14
2014-2-15,35,30,23,29,25,15,95,81,69,29.81,29.60,3,0,6,0.01
2014-2-16,27,21,16,14,10,7,72,64,51,30.16,29.82,0,0,0,0.00
2014-2-17,33,21,12,9,5,1,71,52,30,30.42,30.16,2,0,3,0.01
2014-2-18,38,29,22,32,23,9,94,77,57,30.35,30.00,7,0,8,0.19
2014-2-19,44,34,25,40,31,21,96,87,77,30.13,29.72,5,0,7,0.16
2014-2-20,50,38,31,35,28,24,95,69,39,30.29,30.04,2,0,4,0.00
2014-2-21,43,37,33,42,36,32,98,97,95,30.04,29.68,3,0,7,0.39
2014-2-22,54,41,30,34,27,22,97,62,29,30.09,29.95,5,1,10,0.01
2014-2-23,54,43,35,32,29,27,82,60,37,30.04,29.87,7,0,7,0.00
2014-2-24,40,32,23,29,18,10,71,56,40,30.11,29.84,6,1,10,0.00
2014-2-25,30,24,18,17,12,9,68,61,52,30.12,29.97,5,1,8,0.00
2014-2-26,30,22,12,20,9,-5,87,59,36,30.01,29.85,8,1,9,0.01
2014-2-27,30,18,9,12,2,-11,66,50,38,30.14,29.65,8,1,11,0.00
2014-2-28,23,12,4,-1,-6,-12,59,45,32,30.46,30.15,2,0,5,0.00
2014-3-1,38,24,11,16,9,-2,73,54,32,30.45,30.18,2,0,5,0.00
2014-3-2,39,32,28,30,22,15,93,67,54,30.17,30.01,1,0,4,0.00
2014-3-3,28,18,12,15,5,-1,78,56,46,30.36,30.03,7,1,7,0.00
2014-3-4,30,18,7,8,1,-4,63,49,28,30.45,30.29,2,0,4,0.00
2014-3-5,38,27,19,15,10,5,68,49,31,30.46,30.24,3,0,5,0.00
2014-3-6,33,21,12,14,6,-1,74,54,35,30.66,30.46,2,0,9,0.00
2014-3-7,36,30,22,27,21,13,77,70,63,30.50,29.95,2,0,5,0.00
2014-3-8,52,40,29,32,30,27,93,68,43,29.95,29.81,3,0,6,0.00
2014-3-9,42,36,33,29,22,16,82,57,35,30.05,29.91,4,1,7,0.00
2014-3-10,51,40,33,31,25,19,65,55,42,29.97,29.64,3,0,4,0.00
2014-3-11,63,49,39,39,35,30,72,58,40,29.72,29.59,4,1,5,0.00
2014-3-12,56,49,31,53,42,26,96,76,62,29.69,29.03,5,0,9,0.18
2014-3-13,29,21,15,24,6,0,79,52,35,30.12,29.18,8,3,12,0.00
2014-3-14,47,30,17,26,11,-1,66,46,26,30.26,29.93,4,1,8,0.00
2014-3-15,56,47,36,32,27,24,66,47,30,30.02,29.79,6,2,10,0.00
2014-3-16,40,32,27,23,12,5,60,43,32,30.21,30.02,4,1,7,0.00
2014-3-17,33,26,20,9,4,-5,45,38,30,30.16,30.06,4,0,6,0.00
2014-3-18,44,31,21,25,13,2,87,49,26,30.32,30.15,3,0,5,0.00
2014-3-19,40,35,28,40,31,25,97,86,77,30.32,29.85,3,0,5,0.88
2014-3-20,52,43,38,41,32,22,97,69,42,29.94,29.77,7,2,10,0.01
2014-3-21,51,40,32,25,21,19,63,47,31,30.07,29.93,6,1,9,0.00
2014-3-22,63,47,36,38,29,20,79,52,28,30.06,29.79,6,1,10,0.00
2014-3-23,42,35,24,26,18,5,69,50,31,30.14,29.99,4,1,8,0.00
2014-3-24,34,25,17,8,5,3,58,44,29,30.27,30.13,4,1,6,0.00
2014-3-25,39,29,18,23,12,5,76,50,32,30.19,29.89,3,0,7,0.00
2014-3-26,35,29,21,20,10,3,69,47,31,30.26,29.78,8,2,11,0.00
2014-3-27,45,30,16,19,9,5,67,44,22,30.46,30.27,5,0,7,0.00
2014-3-28,59,46,31,50,38,19,93,76,57,30.29,29.99,5,1,9,0.06
2014-3-29,52,46,43,48,43,39,96,90,74,30.18,29.68,4,1,10,2.22
2014-3-30,45,43,38,45,42,37,98,96,94,29.70,29.47,5,2,10,0.79
2014-3-31,54,42,33,39,34,30,96,75,49,30.10,29.70,4,1,7,0.08
2014-4-1,59,44,32,36,32,27,84,65,39,30.17,30.00,2,0,5,0.00
2014-4-2,55,43,36,45,39,33,95,87,68,30.17,30.06,1,0,2,0.01
2014-4-3,66,52,41,44,32,22,94,54,19,30.16,30.00,2,0,4,0.04
2014-4-4,43,40,38,41,38,37,97,95,92,30.08,29.77,3,0,6,0.39
2014-4-5,52,43,36,42,33,24,98,72,45,30.10,29.74,7,2,11,0.00
2014-4-6,60,44,30,31,23,19,73,48,21,30.23,30.10,3,0,6,0.00
2014-4-7,51,42,34,46,36,29,97,79,52,30.23,29.70,3,0,6,0.46
2014-4-8,63,53,45,56,45,34,98,77,48,29.69,29.43,9,1,10,0.21
2014-4-9,62,49,39,38,32,24,82,55,29,30.03,29.64,7,1,8,0.00
2014-4-10,67,50,35,34,27,18,56,42,28,30.23,30.04,5,1,11,0.00
2014-4-11,76,60,50,52,42,31,89,54,31,30.05,29.94,4,0,9,0.00
2014-4-12,74,58,44,52,40,32,93,57,23,30.24,30.02,6,0,6,0.00
2014-4-13,83,64,47,55,48,34,83,60,34,30.21,29.98,6,1,12,0.00
2014-4-14,79,67,59,58,55,52,89,68,40,30.02,29.84,7,1,13,0.00
2014-4-15,64,55,32,63,53,31,97,92,80,29.93,29.52,4,1,10,0.60
2014-4-16,47,36,27,31,22,18,96,59,34,30.58,29.92,4,1,9,0.03
2014-4-17,52,39,31,32,25,18,88,60,41,30.74,30.59,1,0,5,0.00
2014-4-18,50,40,32,33,30,28,91,69,43,30.63,30.29,3,0,4,0.00
2014-4-19,67,51,36,39,30,23,90,52,20,30.36,30.24,3,0,9,0.00
2014-4-20,59,48,38,33,27,21,73,46,30,30.49,30.34,2,0,6,0.00
2014-4-21,72,52,35,43,30,18,77,49,15,30.33,29.89,3,0,4,0.00
2014-4-22,75,57,45,53,47,42,94,71,35,29.89,29.53,5,0,7,0.00
2014-4-23,58,50,40,47,36,29,76,60,44,29.87,29.52,5,2,9,0.00
2014-4-24,62,49,38,29,21,14,64,36,19,30.04,29.86,5,1,9,0.00
2014-4-25,68,52,39,42,26,18,83,38,22,30.06,29.77,4,0,6,0.03
2014-4-26,69,52,44,48,44,39,97,77,38,29.89,29.71,4,0,5,0.49
2014-4-27,59,50,42,38,35,32,76,58,40,30.13,29.89,3,0,8,0.00
2014-4-28,67,52,39,38,35,33,84,55,30,30.14,30.02,4,0,5,0.00
2014-4-29,50,44,40,41,39,37,94,82,65,30.40,30.11,4,0,7,0.09
2014-4-30,51,44,39,51,43,38,98,97,92,30.40,29.97,4,1,8,5.02
2014-5-1,78,64,50,62,56,49,99,78,39,29.96,29.69,2,0,5,0.22
2014-5-2,66,59,51,48,42,36,81,55,37,29.87,29.73,3,1,9,0.00
2014-5-3,69,57,47,50,42,37,93,59,37,29.89,29.75,3,0,7,0.05
2014-5-4,62,54,49,49,39,27,94,60,35,29.82,29.69,6,1,9,0.01
2014-5-5,68,56,45,39,32,25,69,43,24,29.93,29.82,4,1,6,0.00
2014-5-6,71,57,46,37,32,26,55,40,23,30.09,29.88,3,0,5,0.00
2014-5-7,73,57,45,44,34,30,69,44,27,30.25,30.09,3,0,6,0.00
2014-5-8,57,54,50,55,52,43,97,94,67,30.20,30.09,0,0,2,0.47
2014-5-9,63,57,53,60,56,52,98,96,88,30.18,30.00,0,0,3,0.00
2014-5-10,81,65,57,68,61,57,99,87,55,29.99,29.84,3,0,8,0.24
2014-5-11,81,66,54,61,51,45,97,64,30,30.09,29.88,2,0,5,0.01
2014-5-12,84,71,59,63,55,48,87,59,41,30.13,30.03,2,0,4,0.00
2014-5-13,71,63,49,62,50,40,90,66,42,30.29,30.02,3,0,7,0.00
2014-5-14,75,57,48,59,51,44,97,81,57,30.32,30.24,2,0,5,0.01
2014-5-15,74,65,56,70,64,55,99,95,83,30.24,30.07,2,0,4,0.03
2014-5-16,69,65,57,67,64,57,98,96,89,30.06,29.78,3,0,7,0.00
2014-5-17,68,58,50,55,47,40,98,71,42,30.13,29.86,2,0,5,0.00
2014-5-18,64,55,46,44,41,36,85,60,41,30.21,30.12,3,0,3,0.00
2014-5-19,70,57,45,46,40,34,71,55,31,30.23,30.09,2,0,4,0.00
2014-5-20,78,63,50,48,43,38,74,52,24,30.16,29.99,2,0,4,0.00
2014-5-21,71,65,59,59,53,48,87,66,51,30.02,29.89,2,0,4,0.00
2014-5-22,66,61,57,64,59,56,97,94,87,29.90,29.78,1,0,4,0.00
2014-5-23,72,60,55,60,56,51,98,88,52,29.96,29.84,1,0,3,0.00
2014-5-24,69,58,53,59,55,51,97,89,65,30.11,29.93,1,0,4,0.00
2014-5-25,79,65,51,59,52,45,98,68,34,30.13,30.03,2,0,3,0.05
2014-5-26,86,73,61,56,52,46,68,50,32,30.07,29.91,3,0,6,0.00
2014-5-27,86,73,65,67,60,54,87,65,46,29.92,29.79,1,0,6,0.00
2014-5-28,67,58,52,64,55,47,94,89,80,30.17,29.79,2,0,5,0.02
2014-5-29,66,56,49,51,45,39,83,69,48,30.23,30.16,2,0,4,0.00
2014-5-30,77,63,50,55,50,42,85,65,41,30.17,29.99,2,0,6,0.00
2014-5-31,73,62,54,52,48,42,82,62,36,30.30,30.08,3,0,9,0.00
2014-6-1,79,63,50,51,44,37,85,53,25,30.38,30.26,3,0,4,0.00
2014-6-2,84,68,53,60,51,41,75,55,39,30.28,30.04,4,0,5,0.00
2014-6-3,90,72,61,69,63,55,97,75,44,30.04,29.81,2,0,6,0.44
2014-6-4,83,71,65,67,62,54,98,75,44,29.86,29.74,1,0,3,0.00
2014-6-5,76,64,59,64,58,53,98,83,57,29.82,29.65,2,0,4,0.02
2014-6-6,74,64,57,57,53,49,78,67,50,29.96,29.81,3,0,4,0.00
2014-6-7,82,68,55,58,54,51,86,62,39,30.02,29.93,1,0,4,0.00
2014-6-8,87,73,62,64,57,52,85,61,34,29.98,29.86,3,0,3,0.00
2014-6-9,68,64,60,66,62,54,98,93,63,29.96,29.90,2,0,3,0.01
2014-6-10,77,69,63,71,67,63,99,93,79,29.98,29.92,2,0,3,0.00
2014-6-11,67,62,58,66,61,57,98,95,87,30.11,29.99,2,0,6,0.00
2014-6-12,68,63,58,68,62,58,99,98,96,30.10,29.93,2,0,4,0.00
2014-6-13,82,68,65,74,67,64,99,96,71,29.93,29.71,2,0,6,0.00
2014-6-14,74,65,57,67,59,49,99,81,56,30.04,29.79,1,0,4,0.00
2014-6-15,80,66,55,59,55,51,89,70,44,30.13,30.04,2,0,3,0.00
2014-6-16,86,71,61,64,60,55,83,68,46,30.17,30.05,2,0,4,0.00
2014-6-17,91,78,66,71,66,62,88,68,44,30.07,29.89,2,0,3,0.00
2014-6-18,89,80,74,70,66,62,83,64,44,29.97,29.82,2,0,4,0.00
2014-6-19,75,70,66,70,66,63,96,87,69,30.02,29.91,2,0,3,0.00
2014-6-20,80,68,58,65,52,47,95,59,36,30.03,29.91,1,0,2,0.00
2014-6-21,79,67,57,56,51,47,74,58,39,29.98,29.88,1,0,4,0.00
2014-6-22,80,68,59,62,56,53,87,68,47,30.04,29.92,1,0,3,0.00
2014-6-23,83,71,60,64,59,55,90,67,47,30.16,30.04,2,0,4,0.00
2014-6-24,87,72,62,63,59,54,86,64,41,30.16,30.01,3,0,6,0.00
2014-6-25,90,75,66,74,69,60,96,83,52,30.04,29.83,1,0,4,0.00
2014-6-26,84,74,67,72,68,65,98,84,60,29.96,29.82,1,0,2,0.00
2014-6-27,84,72,64,67,63,57,92,76,53,30.23,29.97,1,0,3,0.00
2014-6-28,87,72,62,63,58,54,88,65,33,30.29,30.21,1,0,3,0.00
2014-6-29,86,73,63,66,60,53,88,66,43,30.27,30.12,1,0,4,0.00
2014-6-30,88,74,63,68,63,54,89,69,46,30.13,29.94,2,0,4,0.00
2014-7-1,90,78,67,74,69,64,94,75,55,29.97,29.82,4,0,6,0.00
2014-7-2,92,78,70,77,72,68,97,81,57,29.95,29.81,1,0,5,0.00
2014-7-3,88,76,68,79,73,68,99,91,70,30.00,29.86,1,0,5,0.00
2014-7-4,71,67,62,68,63,52,98,87,65,30.05,29.91,2,0,6,0.00
2014-7-5,82,68,57,59,54,51,80,62,41,30.18,30.05,1,0,4,0.00
2014-7-6,87,73,61,62,57,53,77,59,38,30.12,29.95,4,0,6,0.04
2014-7-7,91,78,68,70,66,61,85,66,46,29.95,29.76,3,0,8,0.00
2014-7-8,92,79,69,75,69,66,96,74,49,29.85,29.67,3,0,11,0.08
2014-7-9,88,75,67,70,66,65,93,75,52,29.96,29.78,3,0,5,0.00
2014-7-10,83,72,66,67,64,63,91,77,55,30.14,29.95,2,0,3,0.00
2014-7-11,84,73,65,65,62,58,93,70,45,30.23,30.13,3,0,5,0.00
2014-7-12,88,76,65,66,63,61,92,68,43,30.24,30.12,2,0,4,0.00
2014-7-13,86,76,68,75,70,63,96,84,67,30.13,29.89,2,0,5,0.33
2014-7-14,85,74,69,76,71,68,98,93,72,29.96,29.81,1,0,3,1.48
2014-7-15,81,74,71,78,73,70,99,96,86,29.83,29.73,1,0,2,0.58
2014-7-16,81,71,62,70,64,58,99,82,53,29.90,29.75,0,0,3,0.03
2014-7-17,83,70,61,64,59,55,91,70,46,30.12,29.89,2,0,6,0.00
2014-7-18,81,69,58,62,57,53,89,66,43,30.24,30.12,2,0,3,0.00
2014-7-19,76,69,64,63,59,55,84,71,54,30.25,30.18,1,0,3,0.00
2014-7-20,78,69,64,66,62,58,92,79,63,30.18,30.11,3,0,5,0.00
2014-7-21,83,71,62,66,63,60,96,78,53,30.21,30.14,1,0,3,0.00
2014-7-22,87,75,65,73,67,61,90,75,58,30.19,30.06,1,0,4,0.00
2014-7-23,88,76,67,77,70,63,97,80,63,30.05,29.78,2,0,6,0.21
2014-7-24,80,71,66,70,64,56,97,79,56,29.92,29.81,1,0,3,0.01
2014-7-25,84,70,60,63,58,54,85,66,41,30.04,29.92,1,0,5,0.00
2014-7-26,79,70,63,69,64,58,93,81,66,30.01,29.90,2,0,3,0.00
2014-7-27,87,75,68,73,69,67,98,84,57,29.91,29.65,3,0,3,0.07
2014-7-28,82,71,64,72,66,59,98,84,55,29.71,29.53,2,0,7,0.64
2014-7-29,74,65,58,58,56,54,89,73,54,29.99,29.72,1,0,4,0.00
2014-7-30,80,67,58,57,55,52,83,65,42,30.05,29.97,1,0,3,0.00
2014-7-31,85,71,60,66,60,55,85,70,44,30.15,30.06,1,0,4,0.00
2014-8-1,81,71,66,71,67,64,97,89,67,30.22,30.15,1,0,3,0.09
2014-8-2,73,67,62,68,64,62,98,91,73,30.20,30.10,2,0,5,0.34
2014-8-3,72,67,63,68,65,62,98,93,81,30.14,30.04,0,0,2,0.07
2014-8-4,86,73,66,70,66,64,98,80,51,30.09,30.03,1,0,3,0.00
2014-8-5,89,76,66,69,65,60,93,71,44,30.05,29.91,0,0,3,0.00
2014-8-6,84,72,65,67,63,58,91,75,53,29.92,29.85,0,0,2,0.00
2014-8-7,82,69,59,63,57,52,83,65,38,30.03,29.91,0,0,2,0.00
2014-8-8,81,69,60,60,56,52,82,65,45,30.11,30.03,1,0,2,0.00
2014-8-9,86,72,62,62,58,55,81,63,39,30.13,30.07,1,0,5,0.00
2014-8-10,86,73,64,62,60,56,84,64,38,30.15,30.08,4,0,4,0.00
2014-8-11,84,73,65,65,61,56,91,67,38,30.15,30.09,0,0,7,0.00
2014-8-12,76,70,67,70,67,65,97,90,79,30.09,29.84,2,0,3,0.14
2014-8-13,82,71,65,73,67,60,98,86,61,29.82,29.67,1,0,4,0.38
2014-8-14,78,67,57,60,55,53,87,68,43,29.90,29.79,1,0,5,0.00
2014-8-15,72,63,55,56,53,50,87,71,52,30.00,29.90,1,0,6,0.00
2014-8-16,81,67,58,57,54,51,83,64,39,30.03,29.92,2,0,4,0.00
2014-8-17,82,70,61,66,58,52,85,69,50,29.93,29.83,1,0,3,0.00
2014-8-18,82,68,57,61,57,54,91,68,46,29.94,29.83,1,0,3,0.00
2014-8-19,83,69,59,66,60,54,85,73,51,29.95,29.87,2,0,4,0.00
2014-8-20,85,72,65,66,63,58,93,75,51,30.04,29.94,0,0,3,0.00
2014-8-21,85,70,62,67,63,60,97,80,51,30.07,29.99,2,0,3,1.09
2014-8-22,73,67,62,67,64,60,98,90,73,30.06,29.99,0,0,2,0.20
2014-8-23,70,65,63,65,61,58,92,86,80,30.13,30.04,1,0,3,0.01
2014-8-24,80,68,60,64,60,59,96,79,49,30.16,30.11,2,0,5,0.00
2014-8-25,87,72,61,65,61,59,94,72,41,30.19,30.12,3,0,4,0.00
2014-8-26,88,74,65,69,64,61,86,73,49,30.17,30.07,0,0,3,0.00
2014-8-27,92,76,65,70,66,62,93,74,47,30.09,29.86,3,0,5,0.00
2014-8-28,80,70,60,70,58,49,89,65,43,30.06,29.85,1,0,4,0.00
2014-8-29,81,65,56,57,53,49,85,66,41,30.26,30.07,2,0,4,0.00
2014-8-30,75,67,58,66,60,54,89,78,62,30.28,30.16,1,0,4,0.00
2014-8-31,90,74,67,75,70,63,94,85,55,30.17,29.96,1,0,5,0.01
2014-9-1,87,78,71,74,72,70,97,84,61,30.02,29.92,2,0,5,0.00
2014-9-2,92,80,72,74,71,67,98,77,49,29.95,29.81,2,0,9,0.00
2014-9-3,85,74,65,68,63,57,91,71,40,30.12,29.84,2,0,6,0.00
2014-9-4,88,75,66,65,61,57,82,64,40,30.20,30.11,1,0,4,0.00
2014-9-5,88,75,68,75,70,64,96,85,62,30.18,30.02,1,0,3,0.00
2014-9-6,91,75,64,76,72,63,97,91,55,30.02,29.85,2,0,3,0.66
2014-9-7,81,68,60,64,60,54,97,78,46,30.20,29.95,1,0,3,0.00
2014-9-8,76,66,58,62,57,53,84,73,56,30.32,30.20,2,0,5,0.00
2014-9-9,72,65,59,63,59,54,93,81,69,30.27,30.15,3,0,6,0.00
2014-9-10,78,67,61,62,60,56,93,77,55,30.14,30.03,4,0,4,0.00
2014-9-11,82,70,63,72,66,59,97,87,70,30.03,29.83,2,0,6,0.00
2014-9-12,78,65,55,58,54,51,88,70,45,30.19,29.95,2,0,4,0.00
2014-9-13,64,59,54,61,56,49,97,88,75,30.19,30.10,2,0,5,0.08
2014-9-14,72,57,48,54,49,46,95,76,44,30.29,30.17,1,0,5,0.00
2014-9-15,74,59,49,52,48,44,90,69,38,30.26,30.09,2,0,5,0.00
2014-9-16,68,59,54,61,55,51,98,86,67,30.09,29.97,1,0,3,0.38
2014-9-17,65,57,52,52,49,45,90,76,51,30.08,29.98,1,0,3,0.00
2014-9-18,77,62,54,54,52,49,92,70,41,30.11,29.96,1,0,3,0.00
2014-9-19,68,57,50,51,48,42,92,75,51,30.38,30.12,3,0,7,0.00
2014-9-20,76,64,53,62,57,51,95,80,56,30.35,30.07,2,0,4,0.00
2014-9-21,76,68,63,69,65,62,97,92,78,30.07,29.62,1,0,3,0.00
2014-9-22,70,62,51,65,52,41,94,72,49,30.19,29.64,1,0,5,0.00
2014-9-23,74,60,46,50,46,40,83,61,36,30.42,30.27,1,0,4,0.00
2014-9-24,70,60,52,56,53,49,91,76,54,30.56,30.42,2,0,6,0.00
2014-9-25,61,58,54,58,55,52,97,90,73,30.47,30.23,3,0,6,0.45
2014-9-26,77,62,52,56,52,49,94,72,42,30.24,30.17,2,0,6,0.00
2014-9-27,84,68,57,59,55,53,88,67,36,30.24,30.17,2,0,4,0.00
2014-9-28,86,70,61,63,58,54,83,67,38,30.18,30.02,2,0,3,0.00
2014-9-29,78,68,63,64,60,57,87,78,58,30.02,29.91,0,0,2,0.00
2014-9-30,76,65,59,61,58,52,95,81,47,29.99,29.92,2,0,3,0.00